{"data":{"norad_id":46083,"epoch":"2026-09-20T01:29:45.293856Z","epoch_age_seconds":55945,"freshness":"FRESH","line1":"1 46083U 20055BJ  26263.06232979  .00000789  00000+0  37194-4 0  9991","line2":"2 46083  53.1586 276.6157 0001496  93.6536 266.4637 15.31699115339018","mean_motion":15.31699115,"eccentricity":0.0001496,"inclination_deg":53.1586,"raan_deg":276.6157,"arg_perigee_deg":93.6536,"mean_anomaly_deg":266.4637,"bstar":3.7194e-5,"rev_number":33901,"period_min":94.013242280942,"perigee_km":469.71804097272,"apogee_km":471.76722575902,"semimajor_km":6848.8796333659,"source":"CELESTRAK","updated_at":"2026-09-20T09:00:38.466515Z"}}